| time (UTC) | temp F | wind direction | speed knots | gust knots | rain 1hr in | rain 24hr in | rain mn in | humidity % | barometer mb |
| 20260906065536 | 81 | 279 | 1.7 | 6.1 | 0.00 | 0.00 | 0.00 | 32 | 1018.8 |
| 20260906065019 | 80 | 221 | 0.0 | 2.6 | 0.00 | 0.00 | 0.00 | 35 | 1018.7 |
| 20260906064556 | 79 | 331 | 0.9 | 5.2 | 0.00 | 0.00 | 0.00 | 34 | 1018.8 |
| 20260906064047 | 78 | 313 | 0.9 | 3.5 | 0.00 | 0.00 | 0.00 | 35 | 1018.6 |
| 20260906063514 | 76 | 14 | 0.0 | 2.6 | 0.00 | 0.00 | 0.00 | 37 | 1018.6 |
| 20260906063016 | 76 | 302 | 0.0 | 3.5 | 0.00 | 0.00 | 0.00 | 38 | 1018.7 |
| 20260906062546 | 75 | 355 | 0.0 | 3.5 | 0.00 | 0.00 | 0.00 | 37 | 1018.5 |
| 20260906062034 | 75 | 89 | 0.9 | 3.5 | 0.00 | 0.00 | 0.00 | 38 | 1018.5 |
| 20260906061516 | 75 | 21 | 0.0 | 2.6 | 0.00 | 0.00 | 0.00 | 38 | 1018.5 |
| 20260906061016 | 75 | 9 | 0.0 | 1.7 | 0.00 | 0.00 | 0.00 | 38 | 1018.5 |
| 20260906060536 | 75 | 197 | 0.0 | 1.7 | 0.00 | 0.00 | 0.00 | 39 | 1018.4 |
| 20260906060052 | 75 | 205 | 0.0 | 1.7 | 0.00 | 0.00 | 0.00 | 39 | 1018.3 |
| 20260906055530 | 75 | 241 | 0.0 | 1.7 | 0.00 | 0.00 | 0.00 | 39 | 1018.4 |
| 20260906055014 | 74 | 240 | 0.0 | 3.5 | 0.00 | 0.00 | 0.00 | 39 | 1018.4 |
| 20260906054547 | 74 | 355 | 0.9 | 2.6 | 0.00 | 0.00 | 0.00 | 39 | 1018.3 |
| 20260906054036 | 73 | 295 | 0.9 | 2.6 | 0.00 | 0.00 | 0.00 | 40 | 1018.3 |
| 20260906053600 | 72 | 273 | 0.0 | 2.6 | 0.00 | 0.00 | 0.00 | 40 | 1018.3 |
| 20260906053039 | 72 | 219 | 0.0 | 1.7 | 0.00 | 0.00 | 0.00 | 41 | 1018.3 |
| 20260906052520 | 71 | 311 | 0.0 | 1.7 | 0.00 | 0.00 | 0.00 | 43 | 1018.2 |
| 20260906052042 | 71 | 296 | 0.0 | 3.5 | 0.00 | 0.00 | 0.00 | 43 | 1018.2 |
| 20260906051602 | 70 | 14 | 0.0 | 3.5 | 0.00 | 0.00 | 0.00 | 45 | 1018.2 |
| 20260906051035 | 69 | 26 | 0.0 | 0.0 | 0.00 | 0.00 | 0.00 | 47 | 1018.2 |
| 20260906050600 | 69 | 99 | 0.0 | 0.0 | 0.00 | 0.00 | 0.00 | 48 | 1018.1 |
| 20260906050104 | 69 | 103 | 0.0 | 0.0 | 0.00 | 0.00 | 0.00 | 49 | 1018.2 |
| 20260906045504 | 68 | 63 | 0.0 | 0.0 | 0.00 | 0.00 | 0.00 | 50 | 1018.2 |
| 20260906045052 | 68 | 96 | 0.0 | 0.0 | 0.00 | 0.00 | 0.00 | 50 | 1018.2 |
| 20260906044523 | 68 | 91 | 0.0 | 0.0 | 0.00 | 0.00 | 0.00 | 51 | 1018.1 |
| 20260906044025 | 68 | 110 | 0.0 | 0.0 | 0.00 | 0.00 | 0.00 | 52 | 1018.1 |
| 20260906043516 | 69 | 67 | 0.0 | 0.0 | 0.00 | 0.00 | 0.00 | 51 | 1018.1 |
| 20260906043029 | 69 | 67 | 0.0 | 0.0 | 0.00 | 0.00 | 0.00 | 51 | 1018.1 |
| 20260906042555 | 69 | 67 | 0.0 | 0.0 | 0.00 | 0.00 | 0.00 | 51 | 1018.1 |
| 20260906042054 | 70 | 57 | 0.0 | 0.0 | 0.00 | 0.00 | 0.00 | 50 | 1018.1 |
| 20260906041538 | 70 | 46 | 0.0 | 0.0 | 0.00 | 0.00 | 0.00 | 49 | 1018.1 |
| 20260906041032 | 70 | 44 | 0.0 | 0.0 | 0.00 | 0.00 | 0.00 | 49 | 1018.0 |
| 20260906040504 | 71 | 44 | 0.0 | 0.0 | 0.00 | 0.00 | 0.00 | 48 | 1018.1 |
| 20260906040014 | 71 | 44 | 0.0 | 0.0 | 0.00 | 0.00 | 0.00 | 47 | 1018.1 |
| 20260906035546 | 71 | 61 | 0.0 | 0.0 | 0.00 | 0.00 | 0.00 | 47 | 1017.9 |
| 20260906035042 | 71 | 72 | 0.0 | 0.0 | 0.00 | 0.00 | 0.00 | 46 | 1018.1 |
| 20260906034535 | 71 | 66 | 0.0 | 0.0 | 0.00 | 0.00 | 0.00 | 46 | 1018.1 |
| 20260906034031 | 71 | 90 | 0.0 | 0.0 | 0.00 | 0.00 | 0.00 | 45 | 1018.1 |
| 20260906033505 | 71 | 72 | 0.0 | 0.0 | 0.00 | 0.00 | 0.00 | 45 | 1018.0 |
| 20260906033046 | 71 | 96 | 0.0 | 0.0 | 0.00 | 0.00 | 0.00 | 45 | 1017.9 |
| 20260906032508 | 71 | 94 | 0.0 | 0.0 | 0.00 | 0.00 | 0.00 | 45 | 1017.9 |
| 20260906032004 | 70 | 334 | 0.0 | 0.0 | 0.00 | 0.00 | 0.00 | 45 | 1018.0 |
| 20260906031548 | 70 | 39 | 0.0 | 0.0 | 0.00 | 0.00 | 0.00 | 45 | 1017.9 |
| 20260906031039 | 69 | 67 | 0.0 | 0.0 | 0.00 | 0.00 | 0.00 | 46 | 1018.0 |
| 20260906030508 | 68 | 73 | 0.0 | 0.0 | 0.00 | 0.00 | 0.00 | 47 | 1017.9 |
| 20260906030022 | 68 | 51 | 0.0 | 0.0 | 0.00 | 0.00 | 0.00 | 47 | 1018.0 |
| 20260906025548 | 68 | 51 | 0.0 | 0.0 | 0.00 | 0.00 | 0.00 | 48 | 1018.0 |
| 20260906025050 | 67 | 115 | 0.0 | 0.0 | 0.00 | 0.00 | 0.00 | 48 | 1018.0 |
| 20260906024537 | 67 | 115 | 0.0 | 0.0 | 0.00 | 0.00 | 0.00 | 48 | 1018.1 |
| 20260906024032 | 67 | 115 | 0.0 | 0.0 | 0.00 | 0.00 | 0.00 | 48 | 1017.8 |
| 20260906023504 | 67 | 108 | 0.0 | 0.0 | 0.00 | 0.00 | 0.00 | 48 | 1018.0 |
| 20260906023048 | 67 | 131 | 0.0 | 0.0 | 0.00 | 0.00 | 0.00 | 49 | 1017.9 |
| 20260906022511 | 67 | 131 | 0.0 | 0.0 | 0.00 | 0.00 | 0.00 | 49 | 1017.9 |
| 20260906022012 | 67 | 114 | 0.0 | 0.0 | 0.00 | 0.00 | 0.00 | 49 | 1017.9 |
| 20260906021602 | 67 | 114 | 0.0 | 0.0 | 0.00 | 0.00 | 0.00 | 49 | 1017.9 |
| 20260906021056 | 67 | 114 | 0.0 | 0.0 | 0.00 | 0.00 | 0.00 | 49 | 1017.8 |
| 20260906020530 | 67 | 114 | 0.0 | 0.0 | 0.00 | 0.00 | 0.00 | 49 | 1017.8 |
| 20260906020046 | 67 | 114 | 0.0 | 0.0 | 0.00 | 0.00 | 0.00 | 50 | 1017.9 |
| 20260906015508 | 67 | 114 | 0.0 | 0.0 | 0.00 | 0.00 | 0.00 | 49 | 1017.9 |
| 20260906015008 | 67 | 114 | 0.0 | 0.0 | 0.00 | 0.00 | 0.00 | 49 | 1017.9 |
| 20260906014556 | 67 | 114 | 0.0 | 0.0 | 0.00 | 0.00 | 0.00 | 49 | 1017.9 |
| 20260906014053 | 67 | 114 | 0.0 | 0.0 | 0.00 | 0.00 | 0.00 | 49 | 1017.9 |
| 20260906013522 | 67 | 114 | 0.0 | 0.0 | 0.00 | 0.00 | 0.00 | 49 | 1017.9 |
| 20260906013036 | 67 | 114 | 0.0 | 0.0 | 0.00 | 0.00 | 0.00 | 49 | 1018.0 |
| 20260906012559 | 68 | 114 | 0.0 | 0.0 | 0.00 | 0.00 | 0.00 | 49 | 1018.0 |
| 20260906012056 | 68 | 114 | 0.0 | 0.0 | 0.00 | 0.00 | 0.00 | 49 | 1018.1 |
| 20260906011557 | 68 | 114 | 0.0 | 0.0 | 0.00 | 0.00 | 0.00 | 49 | 1018.0 |
| 20260906011036 | 68 | 114 | 0.0 | 0.0 | 0.00 | 0.00 | 0.00 | 48 | 1018.0 |
| 20260906010503 | 68 | 114 | 0.0 | 0.0 | 0.00 | 0.00 | 0.00 | 48 | 1018.1 |
| 20260906010006 | 68 | 114 | 0.0 | 0.0 | 0.00 | 0.00 | 0.00 | 48 | 1018.2 |
| 20260906005538 | 68 | 114 | 0.0 | 0.0 | 0.00 | 0.00 | 0.00 | 48 | 1018.1 |
| 20260906005034 | 68 | 114 | 0.0 | 0.0 | 0.00 | 0.00 | 0.00 | 48 | 1018.2 |
| 20260906004512 | 68 | 114 | 0.0 | 0.0 | 0.00 | 0.00 | 0.00 | 48 | 1018.3 |
| 20260906004006 | 69 | 114 | 0.0 | 0.0 | 0.00 | 0.00 | 0.00 | 47 | 1018.2 |
| 20260906003536 | 69 | 114 | 0.0 | 0.0 | 0.00 | 0.00 | 0.00 | 47 | 1018.2 |
| 20260906003038 | 69 | 114 | 0.0 | 0.0 | 0.00 | 0.00 | 0.00 | 47 | 1018.3 |
| 20260906002508 | 69 | 114 | 0.0 | 0.0 | 0.00 | 0.00 | 0.00 | 46 | 1018.3 |
| 20260906002004 | 70 | 114 | 0.0 | 0.0 | 0.00 | 0.00 | 0.00 | 46 | 1018.3 |
| 20260906001546 | 70 | 114 | 0.0 | 0.0 | 0.00 | 0.00 | 0.00 | 46 | 1018.3 |
| 20260906001033 | 70 | 114 | 0.0 | 0.0 | 0.00 | 0.00 | 0.00 | 45 | 1018.3 |
| 20260906000600 | 71 | 114 | 0.0 | 0.0 | 0.00 | 0.00 | 0.00 | 44 | 1018.1 |
| 20260906000046 | 71 | 114 | 0.0 | 0.0 | 0.00 | 0.00 | 0.00 | 44 | 1018.1 |
| 20260905235556 | 71 | 114 | 0.0 | 0.0 | 0.00 | 0.00 | 0.00 | 43 | 1018.2 |
| 20260905235050 | 72 | 114 | 0.0 | 0.0 | 0.00 | 0.00 | 0.00 | 43 | 1018.1 |
| 20260905234548 | 72 | 114 | 0.0 | 0.0 | 0.00 | 0.00 | 0.00 | 42 | 1018.1 |
| 20260905234038 | 73 | 114 | 0.0 | 0.0 | 0.00 | 0.00 | 0.00 | 41 | 1018.2 |
| 20260905233536 | 73 | 114 | 0.0 | 0.0 | 0.00 | 0.00 | 0.00 | 41 | 1018.2 |
| 20260905233039 | 74 | 114 | 0.0 | 0.0 | 0.00 | 0.00 | 0.00 | 41 | 1018.2 |
| 20260905232502 | 74 | 114 | 0.0 | 0.0 | 0.00 | 0.00 | 0.00 | 40 | 1018.2 |
| 20260905232047 | 74 | 114 | 0.0 | 1.7 | 0.00 | 0.00 | 0.00 | 40 | 1018.2 |
| 20260905231508 | 75 | 114 | 0.0 | 2.6 | 0.00 | 0.00 | 0.00 | 40 | 1018.2 |
| 20260905231102 | 75 | 110 | 0.0 | 2.6 | 0.00 | 0.00 | 0.00 | 39 | 1018.2 |
| 20260905230502 | 75 | 118 | 0.0 | 3.5 | 0.00 | 0.00 | 0.00 | 39 | 1018.3 |
| 20260905230055 | 75 | 116 | 0.9 | 3.5 | 0.00 | 0.00 | 0.00 | 38 | 1018.4 |
| 20260905225559 | 75 | 79 | 0.9 | 2.6 | 0.00 | 0.00 | 0.00 | 38 | 1018.3 |
| 20260905225501 | 75 | 84 | 0.9 | 2.6 | 0.00 | 0.00 | 0.00 | 38 | 1018.4 |
| 20260905225052 | 75 | 78 | 0.9 | 2.6 | 0.00 | 0.00 | 0.00 | 39 | 1018.3 |
| 20260905224503 | 75 | 103 | 0.0 | 2.6 | 0.00 | 0.00 | 0.00 | 40 | 1018.5 |
| 20260905224050 | 75 | 111 | 0.9 | 2.6 | 0.00 | 0.00 | 0.00 | 39 | 1018.5 |
| 20260905223555 | 75 | 148 | 0.9 | 2.6 | 0.00 | 0.00 | 0.00 | 40 | 1018.4 |
| 20260905223008 | 75 | 117 | 0.0 | 1.7 | 0.00 | 0.00 | 0.00 | 40 | 1018.5 |
| 20260905222531 | 76 | 119 | 0.0 | 1.7 | 0.00 | 0.00 | 0.00 | 39 | 1018.5 |
| 20260905222018 | 76 | 34 | 0.0 | 1.7 | 0.00 | 0.00 | 0.00 | 39 | 1018.6 |
| 20260905221510 | 76 | 105 | 0.0 | 3.5 | 0.00 | 0.00 | 0.00 | 40 | 1018.6 |
| 20260905221009 | 76 | 81 | 0.9 | 5.2 | 0.00 | 0.00 | 0.00 | 39 | 1018.6 |
| 20260905220518 | 76 | 98 | 1.7 | 5.2 | 0.00 | 0.00 | 0.00 | 39 | 1018.6 |
| 20260905220016 | 76 | 79 | 0.9 | 4.3 | 0.00 | 0.00 | 0.00 | 40 | 1018.7 |
| 20260905215543 | 75 | 103 | 1.7 | 5.2 | 0.00 | 0.00 | 0.00 | 40 | 1018.7 |
| 20260905215030 | 75 | 77 | 1.7 | 5.2 | 0.00 | 0.00 | 0.00 | 40 | 1018.6 |
| 20260905214601 | 75 | 105 | 0.0 | 2.6 | 0.00 | 0.00 | 0.00 | 41 | 1018.8 |
| 20260905214049 | 75 | 106 | 0.0 | 2.6 | 0.00 | 0.00 | 0.00 | 41 | 1018.8 |
| 20260905213536 | 75 | 105 | 0.9 | 2.6 | 0.00 | 0.00 | 0.00 | 41 | 1018.8 |
| 20260905213031 | 75 | 238 | 0.0 | 2.6 | 0.00 | 0.00 | 0.00 | 42 | 1018.8 |
| 20260905212550 | 75 | 238 | 0.9 | 4.3 | 0.00 | 0.00 | 0.00 | 42 | 1018.8 |
| 20260905212040 | 74 | 261 | 0.9 | 4.3 | 0.00 | 0.00 | 0.00 | 42 | 1018.7 |
| 20260905211611 | 74 | 9 | 0.9 | 4.3 | 0.00 | 0.00 | 0.00 | 42 | 1018.7 |
| 20260905211031 | 73 | 86 | 0.0 | 4.3 | 0.00 | 0.00 | 0.00 | 43 | 1018.7 |
| 20260905210547 | 72 | 76 | 0.9 | 4.3 | 0.00 | 0.00 | 0.00 | 45 | 1018.7 |
| 20260905210040 | 72 | 257 | 0.0 | 2.6 | 0.00 | 0.00 | 0.00 | 46 | 1018.6 |
| 20260905205511 | 71 | 78 | 0.0 | 2.6 | 0.00 | 0.00 | 0.00 | 46 | 1018.6 |
| 20260905205011 | 71 | 213 | 0.0 | 2.6 | 0.00 | 0.00 | 0.00 | 47 | 1018.6 |
| 20260905204558 | 70 | 78 | 0.0 | 2.6 | 0.00 | 0.00 | 0.00 | 48 | 1018.7 |
| 20260905204053 | 70 | 26 | 0.0 | 2.6 | 0.00 | 0.00 | 0.00 | 49 | 1018.7 |
| 20260905203524 | 69 | 50 | 0.0 | 2.6 | 0.00 | 0.00 | 0.00 | 50 | 1018.6 |
| 20260905203056 | 68 | 28 | 0.0 | 2.6 | 0.00 | 0.00 | 0.00 | 50 | 1018.6 |
| 20260905202526 | 68 | 72 | 0.0 | 1.7 | 0.00 | 0.00 | 0.00 | 50 | 1018.6 |
| 20260905202028 | 69 | 72 | 0.0 | 1.7 | 0.00 | 0.00 | 0.00 | 50 | 1018.6 |
| 20260905201511 | 69 | 72 | 0.0 | 1.7 | 0.00 | 0.00 | 0.00 | 50 | 1018.7 |
| 20260905201009 | 69 | 68 | 0.0 | 1.7 | 0.00 | 0.00 | 0.00 | 49 | 1018.6 |
| 20260905200542 | 69 | 68 | 0.0 | 1.7 | 0.00 | 0.00 | 0.00 | 49 | 1018.6 |
| 20260905200053 | 70 | 68 | 0.0 | 1.7 | 0.00 | 0.00 | 0.00 | 48 | 1018.6 |
| 20260905195531 | 70 | 68 | 0.0 | 0.0 | 0.00 | 0.00 | 0.00 | 47 | 1018.6 |
| 20260905195022 | 70 | 68 | 0.0 | 0.0 | 0.00 | 0.00 | 0.00 | 47 | 1018.5 |
| 20260905194504 | 70 | 68 | 0.0 | 0.0 | 0.00 | 0.00 | 0.00 | 47 | 1018.6 |
| 20260905194005 | 71 | 68 | 0.0 | 1.7 | 0.00 | 0.00 | 0.00 | 47 | 1018.6 |
| 20260905193539 | 71 | 68 | 0.0 | 1.7 | 0.00 | 0.00 | 0.00 | 47 | 1018.6 |
| 20260905193014 | 71 | 63 | 0.0 | 0.9 | 0.00 | 0.00 | 0.00 | 47 | 1018.7 |
| 20260905192546 | 71 | 63 | 0.0 | 1.7 | 0.00 | 0.00 | 0.00 | 46 | 1018.5 |
| 20260905192046 | 72 | 63 | 0.0 | 1.7 | 0.00 | 0.00 | 0.00 | 46 | 1018.4 |
| 20260905191527 | 72 | 63 | 0.0 | 1.7 | 0.00 | 0.00 | 0.00 | 46 | 1018.5 |
| 20260905191021 | 72 | 63 | 0.0 | 1.7 | 0.00 | 0.00 | 0.00 | 46 | 1018.5 |
| 20260905190552 | 72 | 63 | 0.0 | 1.7 | 0.00 | 0.00 | 0.00 | 46 | 1018.5 |
| 20260905190107 | 73 | 63 | 0.0 | 1.7 | 0.00 | 0.00 | 0.00 | 45 | 1018.5 |
| 20260905185529 | 73 | 63 | 0.0 | 1.7 | 0.00 | 0.00 | 0.00 | 44 | 1018.5 |
| 20260905185023 | 73 | 64 | 0.0 | 1.7 | 0.00 | 0.00 | 0.00 | 44 | 1018.5 |
| 20260905184528 | 74 | 64 | 0.0 | 1.7 | 0.00 | 0.00 | 0.00 | 43 | 1018.4 |
| 20260905184009 | 74 | 30 | 0.0 | 1.7 | 0.00 | 0.00 | 0.00 | 43 | 1018.4 |
| 20260905183543 | 74 | 45 | 0.0 | 1.7 | 0.00 | 0.00 | 0.00 | 43 | 1018.4 |
| 20260905183055 | 74 | 30 | 0.0 | 2.6 | 0.00 | 0.00 | 0.00 | 43 | 1018.4 |
| 20260905182531 | 74 | 40 | 0.9 | 2.6 | 0.00 | 0.00 | 0.00 | 43 | 1018.4 |
| 20260905182026 | 74 | 306 | 0.0 | 3.5 | 0.00 | 0.00 | 0.00 | 42 | 1018.4 |
| 20260905181512 | 74 | 58 | 1.7 | 3.5 | 0.00 | 0.00 | 0.00 | 43 | 1018.4 |
| 20260905181006 | 75 | 47 | 0.9 | 4.3 | 0.00 | 0.00 | 0.00 | 42 | 1018.3 |
| 20260905180538 | 75 | 40 | 0.0 | 4.3 | 0.00 | 0.00 | 0.00 | 42 | 1018.3 |
| 20260905180051 | 75 | 36 | 0.9 | 2.6 | 0.00 | 0.00 | 0.00 | 42 | 1018.3 |
| 20260905175513 | 75 | 34 | 0.0 | 5.2 | 0.00 | 0.00 | 0.00 | 41 | 1018.2 |
| 20260905175012 | 75 | 332 | 0.0 | 5.2 | 0.00 | 0.00 | 0.00 | 41 | 1018.2 |
| 20260905174553 | 75 | 17 | 0.9 | 5.2 | 0.00 | 0.00 | 0.00 | 40 | 1018.2 |
| 20260905174053 | 75 | 69 | 1.7 | 7.8 | 0.00 | 0.00 | 0.00 | 40 | 1018.2 |
| 20260905173521 | 75 | 42 | 0.9 | 5.2 | 0.00 | 0.00 | 0.00 | 39 | 1017.9 |
| 20260905173023 | 76 | 61 | 1.7 | 7.0 | 0.00 | 0.00 | 0.00 | 39 | 1018.0 |
| 20260905172557 | 76 | 27 | 2.6 | 7.8 | 0.00 | 0.00 | 0.00 | 38 | 1018.0 |
| 20260905172005 | 76 | 336 | 1.7 | 7.8 | 0.00 | 0.00 | 0.00 | 38 | 1018.0 |
| 20260905171543 | 76 | 20 | 0.9 | 5.2 | 0.00 | 0.00 | 0.00 | 38 | 1017.9 |
| 20260905171030 | 77 | 9 | 1.7 | 7.0 | 0.00 | 0.00 | 0.00 | 37 | 1018.0 |
| 20260905170559 | 77 | 61 | 1.7 | 7.8 | 0.00 | 0.00 | 0.00 | 36 | 1018.0 |
| 20260905170009 | 77 | 36 | 4.3 | 7.8 | 0.00 | 0.00 | 0.00 | 37 | 1017.9 |
| 20260905165540 | 78 | 44 | 0.9 | 7.0 | 0.00 | 0.00 | 0.00 | 37 | 1017.9 |
| 20260905165033 | 78 | 30 | 1.7 | 7.0 | 0.00 | 0.00 | 0.00 | 37 | 1018.0 |
| 20260905164519 | 79 | 32 | 1.7 | 5.2 | 0.00 | 0.00 | 0.00 | 37 | 1018.0 |
| 20260905164015 | 79 | 39 | 0.9 | 7.8 | 0.00 | 0.00 | 0.00 | 38 | 1017.9 |
| 20260905163550 | 80 | 54 | 1.7 | 7.8 | 0.00 | 0.00 | 0.00 | 35 | 1017.9 |
| 20260905163111 | 80 | 34 | 1.7 | 7.8 | 0.00 | 0.00 | 0.00 | 35 | 1017.9 |
| 20260905163003 | 80 | 51 | 0.9 | 7.8 | 0.00 | 0.00 | 0.00 | 35 | 1017.9 |
| 20260905162531 | 81 | 69 | 1.7 | 7.8 | 0.00 | 0.00 | 0.00 | 34 | 1017.9 |
| 20260905162025 | 81 | 22 | 0.9 | 8.7 | 0.00 | 0.00 | 0.00 | 33 | 1018.0 |
| 20260905161505 | 82 | 71 | 2.6 | 8.7 | 0.00 | 0.00 | 0.00 | 34 | 1018.0 |
| 20260905161003 | 82 | 47 | 0.0 | 6.1 | 0.00 | 0.00 | 0.00 | 34 | 1018.1 |
| 20260905160535 | 82 | 67 | 2.6 | 7.0 | 0.00 | 0.00 | 0.00 | 34 | 1018.1 |
| 20260905160009 | 82 | 360 | 0.9 | 3.5 | 0.00 | 0.00 | 0.00 | 34 | 1018.0 |
| 20260905155544 | 83 | 30 | 0.9 | 3.5 | 0.00 | 0.00 | 0.00 | 33 | 1018.1 |
| 20260905155037 | 82 | 22 | 1.7 | 3.5 | 0.00 | 0.00 | 0.00 | 33 | 1018.1 |
| 20260905154521 | 82 | 351 | 0.9 | 11.3 | 0.00 | 0.00 | 0.00 | 33 | 1018.1 |
| 20260905154021 | 82 | 229 | 1.7 | 11.3 | 0.00 | 0.00 | 0.00 | 34 | 1018.2 |
| 20260905153552 | 83 | 264 | 1.7 | 7.0 | 0.00 | 0.00 | 0.00 | 35 | 1018.2 |
| 20260905153033 | 83 | 207 | 1.7 | 6.1 | 0.00 | 0.00 | 0.00 | 39 | 1018.2 |
| 20260905152525 | 83 | 325 | 0.0 | 5.2 | 0.00 | 0.00 | 0.00 | 39 | 1018.0 |
| 20260905152019 | 83 | 40 | 2.6 | 6.1 | 0.00 | 0.00 | 0.00 | 39 | 1018.1 |
| 20260905151526 | 83 | 320 | 1.7 | 7.8 | 0.00 | 0.00 | 0.00 | 39 | 1018.1 |
| 20260905151048 | 83 | 51 | 0.9 | 9.6 | 0.00 | 0.00 | 0.00 | 39 | 1018.1 |
| 20260905150559 | 84 | 310 | 1.7 | 9.6 | 0.00 | 0.00 | 0.00 | 39 | 1018.2 |
| 20260905150503 | 84 | 330 | 2.6 | 9.6 | 0.00 | 0.00 | 0.00 | 39 | 1018.2 |
| 20260905150039 | 84 | 257 | 0.9 | 7.0 | 0.00 | 0.00 | 0.00 | 41 | 1018.2 |
| 20260905145538 | 84 | 342 | 2.6 | 7.8 | 0.00 | 0.00 | 0.00 | 45 | 1018.2 |
| 20260905145025 | 85 | 234 | 0.9 | 7.8 | 0.00 | 0.00 | 0.00 | 48 | 1018.2 |
| 20260905144507 | 85 | 303 | 2.6 | 7.8 | 0.00 | 0.00 | 0.00 | 43 | 1018.1 |
| 20260905144008 | 85 | 337 | 1.7 | 6.1 | 0.00 | 0.00 | 0.00 | 45 | 1018.1 |
| 20260905143525 | 86 | 309 | 1.7 | 7.8 | 0.00 | 0.00 | 0.00 | 44 | 1018.2 |
| 20260905143035 | 85 | 33 | 2.6 | 7.8 | 0.00 | 0.00 | 0.00 | 43 | 1018.2 |
| 20260905142515 | 85 | 355 | 3.5 | 7.8 | 0.00 | 0.00 | 0.00 | 44 | 1018.1 |
| 20260905142009 | 86 | 293 | 2.6 | 7.0 | 0.00 | 0.00 | 0.00 | 45 | 1018.3 |
| 20260905141547 | 86 | 265 | 1.7 | 7.0 | 0.00 | 0.00 | 0.00 | 46 | 1018.4 |
| 20260905141037 | 86 | 299 | 1.7 | 6.1 | 0.00 | 0.00 | 0.00 | 45 | 1018.3 |
| 20260905140509 | 86 | 211 | 1.7 | 12.2 | 0.00 | 0.00 | 0.00 | 44 | 1018.3 |
| 20260905140025 | 87 | 350 | 4.3 | 12.2 | 0.00 | 0.00 | 0.00 | 39 | 1018.3 |
| 20260905135545 | 87 | 290 | 1.7 | 5.2 | 0.00 | 0.00 | 0.00 | 37 | 1018.3 |
| 20260905135028 | 88 | 307 | 1.7 | 8.7 | 0.00 | 0.00 | 0.00 | 36 | 1018.3 |
| 20260905134551 | 88 | 252 | 2.6 | 8.7 | 0.00 | 0.00 | 0.00 | 35 | 1018.2 |
| 20260905134047 | 88 | 312 | 0.9 | 8.7 | 0.00 | 0.00 | 0.00 | 35 | 1018.2 |
| 20260905133550 | 88 | 237 | 1.7 | 8.7 | 0.00 | 0.00 | 0.00 | 33 | 1018.4 |
| 20260905133043 | 88 | 266 | 0.9 | 7.0 | 0.00 | 0.00 | 0.00 | 33 | 1018.4 |
| 20260905132504 | 88 | 236 | 2.6 | 7.0 | 0.00 | 0.00 | 0.00 | 32 | 1018.4 |
| 20260905132007 | 88 | 322 | 1.7 | 7.0 | 0.00 | 0.00 | 0.00 | 31 | 1018.5 |
| 20260905131550 | 89 | 21 | 2.6 | 8.7 | 0.00 | 0.00 | 0.00 | 32 | 1018.5 |
| 20260905131058 | 89 | 360 | 2.6 | 8.7 | 0.00 | 0.00 | 0.00 | 31 | 1018.5 |
| 20260905130517 | 89 | 15 | 2.6 | 7.0 | 0.00 | 0.00 | 0.00 | 30 | 1018.5 |
| 20260905130023 | 88 | 64 | 2.6 | 7.8 | 0.00 | 0.00 | 0.00 | 30 | 1018.5 |
| 20260905125555 | 88 | 325 | 2.6 | 9.6 | 0.00 | 0.00 | 0.00 | 30 | 1018.5 |
| 20260905125059 | 88 | 290 | 4.3 | 9.6 | 0.00 | 0.00 | 0.00 | 30 | 1018.6 |
| 20260905125001 | 88 | 287 | 1.7 | 7.8 | 0.00 | 0.00 | 0.00 | 30 | 1018.6 |
| 20260905124543 | 88 | 234 | 2.6 | 7.8 | 0.00 | 0.00 | 0.00 | 30 | 1018.5 |
| 20260905124030 | 89 | 342 | 2.6 | 7.0 | 0.00 | 0.00 | 0.00 | 29 | 1018.5 |
| 20260905123557 | 89 | 34 | 2.6 | 7.8 | 0.00 | 0.00 | 0.00 | 29 | 1018.5 |
| 20260905123005 | 89 | 343 | 2.6 | 8.7 | 0.00 | 0.00 | 0.00 | 30 | 1018.6 |
| 20260905122537 | 89 | 332 | 1.7 | 7.0 | 0.00 | 0.00 | 0.00 | 31 | 1018.6 |
| 20260905122026 | 90 | 55 | 1.7 | 6.1 | 0.00 | 0.00 | 0.00 | 30 | 1018.7 |
| 20260905121511 | 89 | 9 | 1.7 | 6.1 | 0.00 | 0.00 | 0.00 | 30 | 1018.6 |
| 20260905121012 | 88 | 347 | 2.6 | 10.4 | 0.00 | 0.00 | 0.00 | 31 | 1018.6 |
| 20260905120542 | 88 | 17 | 2.6 | 10.4 | 0.00 | 0.00 | 0.00 | 31 | 1018.8 |
| 20260905120016 | 88 | 344 | 0.9 | 9.6 | 0.00 | 0.00 | 0.00 | 30 | 1018.8 |
| 20260905115547 | 89 | 327 | 3.5 | 9.6 | 0.00 | 0.00 | 0.00 | 29 | 1018.8 |
| 20260905115043 | 88 | 221 | 1.7 | 7.0 | 0.00 | 0.00 | 0.00 | 29 | 1018.8 |
| 20260905114525 | 88 | 316 | 1.7 | 7.0 | 0.00 | 0.00 | 0.00 | 29 | 1018.8 |
| 20260905114017 | 88 | 290 | 2.6 | 9.6 | 0.00 | 0.00 | 0.00 | 28 | 1019.0 |
| 20260905113545 | 89 | 306 | 3.5 | 9.6 | 0.00 | 0.00 | 0.00 | 28 | 1019.1 |
| 20260905113019 | 90 | 287 | 1.7 | 8.7 | 0.00 | 0.00 | 0.00 | 28 | 1019.0 |
| 20260905112549 | 90 | 288 | 0.9 | 7.0 | 0.00 | 0.00 | 0.00 | 28 | 1018.9 |
| 20260905112044 | 90 | 323 | 1.7 | 7.8 | 0.00 | 0.00 | 0.00 | 28 | 1018.9 |
| 20260905111532 | 90 | 259 | 1.7 | 6.1 | 0.00 | 0.00 | 0.00 | 27 | 1018.9 |
| 20260905111024 | 91 | 315 | 1.7 | 7.0 | 0.00 | 0.00 | 0.00 | 27 | 1019.1 |
| 20260905110552 | 91 | 300 | 0.9 | 7.0 | 0.00 | 0.00 | 0.00 | 27 | 1019.0 |
| 20260905110018 | 90 | 276 | 0.9 | 6.1 | 0.00 | 0.00 | 0.00 | 30 | 1019.1 |
| 20260905105532 | 90 | 11 | 1.7 | 6.1 | 0.00 | 0.00 | 0.00 | 30 | 1019.0 |
| 20260905105026 | 90 | 28 | 2.6 | 6.1 | 0.00 | 0.00 | 0.00 | 29 | 1019.0 |
| 20260905104513 | 90 | 183 | 0.9 | 7.8 | 0.00 | 0.00 | 0.00 | 29 | 1019.0 |
| 20260905104005 | 91 | 234 | 0.9 | 6.1 | 0.00 | 0.00 | 0.00 | 30 | 1019.0 |
| 20260905103533 | 90 | 360 | 1.7 | 6.1 | 0.00 | 0.00 | 0.00 | 31 | 1019.0 |
| 20260905103009 | 90 | 35 | 0.9 | 7.0 | 0.00 | 0.00 | 0.00 | 31 | 1019.0 |
| 20260905102528 | 90 | 345 | 1.7 | 7.8 | 0.00 | 0.00 | 0.00 | 31 | 1019.0 |
| 20260905102024 | 89 | 360 | 2.6 | 7.8 | 0.00 | 0.00 | 0.00 | 31 | 1019.0 |
| 20260905101503 | 89 | 28 | 1.7 | 8.7 | 0.00 | 0.00 | 0.00 | 30 | 1019.1 |
| 20260905101058 | 88 | 9 | 3.5 | 7.8 | 0.00 | 0.00 | 0.00 | 30 | 1019.0 |
| 20260905100523 | 89 | 300 | 1.7 | 7.0 | 0.00 | 0.00 | 0.00 | 30 | 1019.1 |
| 20260905100031 | 88 | 21 | 0.9 | 6.1 | 0.00 | 0.00 | 0.00 | 30 | 1019.0 |
| 20260905095504 | 88 | 275 | 2.6 | 7.0 | 0.00 | 0.00 | 0.00 | 30 | 1019.1 |
| 20260905095059 | 89 | 286 | 0.9 | 7.0 | 0.00 | 0.00 | 0.00 | 30 | 1019.1 |
| 20260905094509 | 89 | 360 | 0.0 | 7.8 | 0.00 | 0.00 | 0.00 | 29 | 1019.2 |
| 20260905094055 | 89 | 293 | 0.9 | 7.0 | 0.00 | 0.00 | 0.00 | 29 | 1019.2 |
| 20260905093524 | 88 | 309 | 3.5 | 7.0 | 0.00 | 0.00 | 0.00 | 29 | 1019.2 |
| 20260905093031 | 88 | 218 | 0.9 | 4.3 | 0.00 | 0.00 | 0.00 | 28 | 1019.2 |
| 20260905092502 | 89 | 323 | 1.7 | 5.2 | 0.00 | 0.00 | 0.00 | 28 | 1019.3 |
| 20260905092057 | 88 | 57 | 0.0 | 5.2 | 0.00 | 0.00 | 0.00 | 27 | 1019.4 |
| 20260905091538 | 88 | 343 | 1.7 | 4.3 | 0.00 | 0.00 | 0.00 | 29 | 1019.3 |
| 20260905091025 | 87 | 327 | 0.9 | 7.0 | 0.00 | 0.00 | 0.00 | 30 | 1019.2 |
| 20260905090601 | 87 | 242 | 1.7 | 7.0 | 0.00 | 0.00 | 0.00 | 29 | 1019.2 |
| 20260905090012 | 87 | 178 | 0.9 | 6.1 | 0.00 | 0.00 | 0.00 | 29 | 1019.3 |
| 20260905085534 | 87 | 287 | 0.9 | 6.1 | 0.00 | 0.00 | 0.00 | 30 | 1019.4 |
| 20260905085026 | 86 | 322 | 1.7 | 4.3 | 0.00 | 0.00 | 0.00 | 31 | 1019.3 |
| 20260905084502 | 86 | 215 | 0.0 | 7.0 | 0.00 | 0.00 | 0.00 | 31 | 1019.3 |
| 20260905084003 | 85 | 153 | 1.7 | 7.0 | 0.00 | 0.00 | 0.00 | 30 | 1019.3 |
| 20260905083537 | 85 | 331 | 0.9 | 5.2 | 0.00 | 0.00 | 0.00 | 30 | 1019.3 |
| 20260905083033 | 85 | 313 | 0.9 | 7.0 | 0.00 | 0.00 | 0.00 | 30 | 1019.4 |
| 20260905082503 | 86 | 273 | 1.7 | 5.2 | 0.00 | 0.00 | 0.00 | 30 | 1019.3 |
| 20260905082059 | 86 | 24 | 2.6 | 5.2 | 0.00 | 0.00 | 0.00 | 30 | 1019.3 |
| 20260905081555 | 86 | 50 | 1.7 | 3.5 | 0.00 | 0.00 | 0.00 | 30 | 1019.3 |
| 20260905081042 | 85 | 16 | 0.9 | 3.5 | 0.00 | 0.00 | 0.00 | 31 | 1019.2 |
| 20260905080502 | 85 | 48 | 0.0 | 4.3 | 0.00 | 0.00 | 0.00 | 31 | 1019.2 |
| 20260905080101 | 84 | 296 | 0.9 | 4.3 | 0.00 | 0.00 | 0.00 | 30 | 1019.2 |
| 20260905075501 | 84 | 44 | 1.7 | 3.5 | 0.00 | 0.00 | 0.00 | 31 | 1019.1 |
| 20260905075054 | 83 | 30 | 0.9 | 2.6 | 0.00 | 0.00 | 0.00 | 32 | 1019.0 |
| 20260905074538 | 83 | 294 | 0.0 | 5.2 | 0.00 | 0.00 | 0.00 | 32 | 1019.0 |
| 20260905074028 | 82 | 296 | 0.9 | 5.2 | 0.00 | 0.00 | 0.00 | 33 | 1018.9 |
| 20260905073554 | 82 | 16 | 0.9 | 3.5 | 0.00 | 0.00 | 0.00 | 34 | 1018.9 |
| 20260905073055 | 81 | 342 | 0.0 | 3.5 | 0.00 | 0.00 | 0.00 | 34 | 1018.9 |
| 20260905072517 | 80 | 291 | 1.7 | 3.5 | 0.00 | 0.00 | 0.00 | 34 | 1018.9 |
| 20260905072013 | 80 | 296 | 0.0 | 1.7 | 0.00 | 0.00 | 0.00 | 37 | 1018.9 |
| 20260905071544 | 79 | 63 | 0.0 | 1.7 | 0.00 | 0.00 | 0.00 | 39 | 1018.9 |
| 20260905071020 | 78 | 78 | 0.0 | 1.7 | 0.00 | 0.00 | 0.00 | 40 | 1018.9 |
| 20260905070503 | 77 | 66 | 0.0 | 1.7 | 0.00 | 0.00 | 0.00 | 40 | 1018.9 |
| 20260905070055 | 77 | 111 | 0.9 | 1.7 | 0.00 | 0.00 | 0.00 | 40 | 1018.9 |